This is the latest recevied weather packets stored in our database for station/object W0JRT-6. If no packets are shown the sender has not sent any weather packets the latest 10 day(s).
| Time | Temp. | Humidity | Pressure | Rain* | Wind** | Luminosity | Snow |
|---|---|---|---|---|---|---|---|
| 1778107806 | 16.11° C | 35% | 1012.3 hPa | 0.51 mm | - | - | - |
| 1778107210 | 16.11° C | 36% | 1012.2 hPa | 0.51 mm | - | - | - |
| 1778106599 | 16.11° C | 36% | 1012.2 hPa | 0.51 mm | - | - | - |
| 1778105998 | 16.11° C | 35% | 1012.3 hPa | 0.51 mm | - | - | - |
| 1778104797 | 16.11° C | 33% | 1012.6 hPa | 0.51 mm | - | - | - |
| 1778104208 | 16.11° C | 36% | 1012.7 hPa | 0.51 mm | - | - | - |
| 1778103597 | 15.56° C | 36% | 1012.7 hPa | 0.51 mm | - | - | - |
| 1778103007 | 16.11° C | 36% | 1012.9 hPa | 0.51 mm | - | - | - |
| 1778102409 | 16.67° C | 38% | 1013.1 hPa | 0.51 mm | - | - | - |
| 1778101808 | 16.11° C | 36% | 1013.2 hPa | 0.51 mm | - | - | - |
| 1778100604 | 16.11° C | 35% | 1013.6 hPa | 0.51 mm | - | - | - |
| 1778100001 | 16.11° C | 36% | 1013.9 hPa | 0.51 mm | - | - | - |
| 1778098797 | 16.11° C | 35% | 1014.1 hPa | 0.51 mm | - | - | - |
| 1778098199 | 15.56° C | 38% | 1014.2 hPa | 0.51 mm | - | - | - |
| 1778096401 | 15° C | 37% | 1014.4 hPa | 0.51 mm | - | - | - |
| 1778095800 | 15° C | 38% | 1014.5 hPa | 0.51 mm | - | - | - |
| 1778095202 | 15° C | 34% | 1014.6 hPa | 0.51 mm | - | - | - |
| 1778094604 | 15° C | 35% | 1014.6 hPa | 0.51 mm | - | - | - |
| 1778094007 | 15° C | 33% | 1014.6 hPa | 0.51 mm | - | - | - |
| 1778093400 | 15° C | 45% | 1014.6 hPa | 0.51 mm | - | - | - |
| 1778092804 | 15° C | 43% | 1014.8 hPa | 0.51 mm | - | - | - |
| 1778091009 | 14.44° C | 40% | 1015.1 hPa | 0.51 mm | - | - | - |
| 1778090405 | 14.44° C | 38% | 1015.2 hPa | 0.51 mm | - | - | - |
| 1778089803 | 13.89° C | 42% | 1015.2 hPa | 0.51 mm | - | - | - |
| 1778089201 | 13.89° C | 40% | 1015.2 hPa | 0.51 mm | - | - | - |
* Rain since midnight (hover to see other rain measurements)
** Current wind speed in m/s (hover to see current wind gust speed)